COSMOS 2251 DEB

Satellite information

Favourite Embed

Satellite Type and Status

DEBRISIN ORBIT

Key statistics

Satellite COSMOS 2251 DEB at a glance.

Uptime

11767

Days in orbit

Revolutions

≈ 14.7

Per day

Orbit

LEO

Low Earth Orbit

Inclination

74.0

Latest

Satellite identification and parameters

Extended collection of information and parameters for COSMOS 2251 DEB.

Object identification

Identified? True

Debris? True

Object name: COSMOS 2251 DEB

International designator: 1993-036AKJ

Object number (NORAD): 35440

Object ID (CCSDS): 35440

Country: COMMONWEALTH OF INDEPENDENT STATES (CIS)

Current information (Y/N): Y

RCS size: SMALL

Orbital parameters

Period: 98.101 minutes

Inclination: 74.0162 deg

SMA: 7045.981 km

Apoapsis: 717.979 km

Periapsis: 617.713 km

RAAN: 43.276 deg

Eccentricy: 0.00711514

Argument of periapsis: 210.6247 deg

Mean anomaly: 149.0762 deg

Mean motion: 14.67880003 rev/day

Mean motion (dot): 0.00007893 rev/day2

B* drag term: 0.0013330589 1/REarth

Two-line elements (TLE)

Creation date: Sept. 3, 2025, 2:21 a.m.

Reference frame: TEME

Reference center: EARTH

Epoch: Sept. 2, 2025, 4:42 p.m. UTC

TLE line 0: 0 COSMOS 2251 DEB

TLE line 1: 1 35440U 93036AKJ 25245.69614703 .00007893 00000-0 13331-2 0 9991

TLE line 2: 2 35440 74.0162 43.2760 0071151 210.6247 149.0762 14.67880003672828

Live tracking on map

Real-time ground track for satellite COSMOS 2251 DEB.

In-orbit conjunctions

A list of the most updated potential collisions computed for object COSMOS 2251 DEB.

Target Orbit TCA Probability of collision Miss distance Type
CZ-6A R/B DEB LEO 2025-07-11 04:22:32 0.0002447395 674.0 (m) DEBRIS
COSMOS 2251 DEB LEO 2024-07-10 03:11:29 0.0003210623 46.0 (m) DEBRIS

Associated space launch

Military communications satellite. Destroyed in a collision with Iridium 33.

COSMOS 2251 DEB was lifted into orbit during the mission ‘Kosmos-3M | Strela-2M 51’, on board a Kosmos-3M space rocket.

The launch took place on June 16, 1993, 4:17 a.m. from 132/1 (132L).

For more information about the launch, click the button.

Launch to space Kosmos-3M | Strela-2M 51
Kosmos-3M | Strela-2M 51

Agency: N/A

Status: Launch Successful

Launch date: June 16, 1993, 4:17 a.m. UTC

Rocket: Kosmos-3M

Launch pad: 132/1 (132L)

Location: Plesetsk Cosmodrome, Russian Federation

...

Latest news about this satellite

There are no fresh news available about this satellite. Check back as we update our databases every day.


Newsletter sign-up

Weekly statistics, charts and insights to help you stay on top of the space industry.